Wind_Speed
9 11 13 14 15 17 21 23 26 28 30 31 34 36 38 41 43 44 45 46 48 49 50 51 52 52 52 52 52 52 52 52 52 52 51 51 50 50 49 49 49 49 48
8 10 12 14 16 18 20 23 25 27 29 30 32 34 36 37 40 42 43 45 47 48 49 51 51 52 54 55 54 53 53 53 53 52 52 51 50 49 50 51 51 50 49
8 11 12 15 17 19 20 22 24 26 28 30 32 34 36 38 40 42 45 46 48 49 51 52 53 54 55 56 55 54 54 55 55 55 54 53 52 50 51 51 51 50 50
9 12 14 16 18 20 22 24 26 28 30 32 34 36 37 39 41 43 45 47 49 50 52 54 54 55 56 56 56 56 57 57 57 57 57 55 54 53 53 52 52 51 50
13 15 17 18 20 22 24 26 28 30 32 34 36 37 40 42 43 45 47 49 51 52 54 56 57 57 58 59 60 59 60 59 59 58 58 57 57 56 56 55 55 54 52
18 19 21 22 24 26 28 30 32 34 36 37 39 40 42 43 45 47 49 51 53 55 56 56 58 59 60 61 62 63 62 62 62 61 60 59 59 59 59 58 57 55 52
23 24 26 28 29 31 32 34 36 39 40 42 44 45 47 48 50 52 55 57 58 59 60 60 61 62 63 64 64 65 66 66 66 64 62 61 61 61 61 60 58 57 54
27 29 30 32 34 36 38 40 43 45 47 49 51 52 54 55 56 57 59 60 61 62 63 63 64 65 67 68 68 68 68 68 68 67 66 65 64 63 62 60 59 58 55
30 32 34 36 38 41 44 46 49 51 54 55 57 59 60 61 62 63 64 64 63 64 65 66 67 68 69 70 71 70 70 70 70 69 68 66 65 64 63 61 60 58 55
35 36 39 41 43 46 48 51 54 56 59 61 63 64 66 67 68 68 68 67 67 67 67 68 69 71 72 73 73 72 70 69 69 68 67 66 65 64 63 61 60 57 56
39 41 43 46 48 51 54 57 59 61 63 65 66 67 68 69 69 70 70 70 69 69 69 69 70 71 72 72 72 71 70 69 68 67 67 65 65 64 62 61 59 58 57
43 46 49 51 54 56 58 60 63 65 66 66 66 66 67 68 69 69 71 72 72 71 70 70 70 69 69 69 69 69 69 69 69 68 66 65 65 64 62 60 59 58 56
48 50 53 56 58 60 62 63 64 65 65 65 65 66 66 68 69 70 70 71 72 72 70 69 68 66 65 65 65 67 67 67 68 69 68 66 65 63 62 60 58 56 55
51 54 57 59 61 62 64 65 65 64 65 65 65 65 66 66 67 67 68 69 69 69 68 66 64 63 62 61 61 62 63 64 65 66 66 66 65 62 61 59 57 55 53
54 57 60 62 63 64 65 65 65 65 66 65 64 64 63 62 63 64 64 64 64 63 62 60 59 58 57 57 57 58 59 61 61 61 62 62 62 60 58 57 55 53 51
57 60 62 64 65 66 65 64 65 65 64 64 63 62 61 61 60 60 59 58 57 56 55 53 52 52 52 52 54 54 55 56 56 57 57 57 56 56 55 53 52 51 50
60 62 64 65 66 66 65 63 62 62 62 62 61 60 59 58 57 55 54 52 51 50 49 48 47 47 47 47 48 49 50 51 51 52 52 52 52 51 51 49 48 47 46
62 63 64 65 65 64 63 62 61 59 58 57 58 57 56 54 53 50 47 45 43 43 42 42 41 41 41 41 42 43 44 46 46 48 48 48 47 47 47 46 46 45 43
62 63 63 63 63 62 61 60 58 57 56 54 53 52 52 50 48 45 42 40 38 37 36 36 36 36 36 36 37 38 39 40 41 42 43 44 45 46 45 44 44 43 42
62 62 62 61 61 60 59 57 55 54 53 52 50 48 46 45 43 41 39 36 34 32 31 30 31 31 32 33 33 34 35 36 37 38 40 41 41 43 43 43 42 41 41
61 61 60 59 59 58 56 54 53 52 51 49 47 45 43 41 39 37 34 32 30 29 28 27 26 27 28 30 30 31 32 34 34 36 37 38 39 40 41 42 42 41 40
60 59 58 57 56 55 53 52 51 50 48 46 44 42 40 38 35 32 30 27 26 26 25 24 24 24 25 26 27 28 29 31 33 34 35 36 37 38 39 40 40 40 40
58 57 56 55 54 53 52 51 49 48 46 44 42 39 37 34 32 28 25 23 22 21 21 21 21 22 22 23 24 24 25 27 30 32 34 35 36 37 37 38 39 39 39
56 55 54 53 52 51 50 48 46 45 43 41 39 36 34 32 29 25 21 19 18 17 17 17 18 18 19 19 21 22 23 25 28 30 32 34 35 36 37 37 37 38 38
54 54 52 51 50 48 47 45 43 42 40 38 36 33 30 27 24 20 18 16 14 13 13 13 14 14 16 17 19 21 23 24 26 29 31 32 33 35 36 37 37 36 36
52 52 50 49 47 45 44 42 40 38 36 35 33 30 26 23 21 18 15 13 10 9 8 9 10 12 13 15 17 19 22 24 25 27 28 29 31 32 33 35 35 35 35
Wind_Direction
216 226 233 235 238 243 245 248 248 246 246 248 250 251 250 252 253 254 255 255 256 257 257 258 259 260 260 261 263 265 266 266 267 268 267 267 267 268 269 269 270 270 272
242 246 250 248 248 249 249 250 251 252 252 253 254 254 253 256 257 257 258 257 258 258 258 258 260 260 260 262 264 264 264 266 267 268 267 267 267 268 268 268 269 269 269
267 263 264 262 260 259 258 259 259 259 259 260 260 259 259 260 260 261 261 261 262 262 262 262 262 262 262 263 264 264 264 265 265 266 266 266 266 267 267 268 268 267 268
277 277 277 275 271 269 268 266 265 265 265 264 265 265 265 265 265 264 263 263 263 264 264 264 265 265 264 263 263 263 264 264 264 265 265 265 265 265 266 266 265 266 268
288 285 284 283 282 280 277 275 274 272 272 272 272 271 271 269 269 268 267 266 265 266 266 265 265 265 265 264 264 264 264 264 264 264 264 263 264 265 265 265 265 265 266
295 294 292 291 290 288 286 284 282 280 278 276 276 275 273 272 271 271 270 269 268 268 268 268 267 265 265 266 265 264 263 263 263 263 263 263 263 263 263 263 263 263 264
298 296 294 293 292 290 289 287 286 285 283 281 278 276 275 275 274 273 272 272 271 270 269 268 266 265 265 264 264 263 263 262 262 262 262 262 261 260 260 261 261 261 262
299 297 295 293 292 291 289 288 287 286 285 283 281 279 278 277 276 275 274 273 272 270 268 267 266 265 265 264 264 263 262 261 261 260 260 259 259 259 259 259 259 260 260
301 300 298 296 294 293 292 290 289 288 287 285 284 283 281 280 278 276 275 274 273 271 270 268 267 266 266 265 264 263 262 260 259 259 258 257 257 258 258 257 257 257 257
303 302 300 299 298 297 296 294 292 291 290 288 287 285 284 283 281 279 276 275 273 272 271 270 268 267 266 266 265 263 261 259 256 256 255 254 254 254 254 254 254 255 255
305 304 303 302 301 300 299 297 296 294 292 290 289 287 286 284 282 280 278 276 274 273 272 271 269 268 267 265 264 261 259 257 254 253 252 251 251 251 251 252 252 252 253
305 305 304 304 303 302 301 299 298 296 294 292 290 288 287 285 283 281 279 278 276 275 274 272 269 268 266 264 262 259 257 254 252 250 250 249 248 249 249 249 249 250 250
306 306 306 305 305 304 303 301 300 298 296 294 292 290 288 287 286 284 282 280 279 277 275 273 271 268 265 262 260 257 255 253 251 249 248 247 247 247 247 247 248 248 248
307 307 308 307 307 307 305 304 302 300 298 297 294 292 291 289 288 285 283 282 281 279 276 273 270 267 264 260 257 255 252 250 250 248 247 246 246 246 245 245 246 247 247
309 309 309 309 309 308 307 306 304 302 300 299 297 296 294 291 289 287 285 283 281 279 277 274 270 267 263 259 255 252 250 248 247 247 246 245 245 244 244 244 244 244 244
310 311 311 311 311 310 308 307 305 304 303 301 300 298 297 295 292 290 288 284 281 278 275 272 269 266 262 258 254 251 249 247 246 245 244 243 243 243 242 242 241 241 241
312 312 312 313 312 312 310 308 307 306 305 304 302 300 299 297 295 292 290 286 283 279 275 271 267 264 260 257 254 251 248 246 244 243 242 240 239 238 238 237 237 237 238
313 314 314 314 314 314 312 311 311 310 308 306 304 302 301 299 297 294 291 287 284 280 276 270 265 261 257 254 252 249 246 243 242 240 238 236 234 233 232 232 232 232 233
314 315 316 316 316 316 316 315 315 314 313 310 308 306 304 302 299 296 292 288 285 281 276 270 263 258 253 251 248 246 243 240 239 237 234 232 230 229 228 227 227 227 228
317 317 318 318 318 318 318 317 317 317 317 315 313 311 309 306 303 298 293 289 285 280 276 270 263 256 251 248 245 243 240 238 235 233 229 227 225 224 223 223 223 224 225
319 319 319 320 320 320 320 320 320 320 319 318 316 315 313 311 307 302 295 289 283 278 274 268 262 256 250 245 242 240 237 234 231 227 224 223 222 220 219 219 220 220 221
320 321 322 322 322 322 322 322 322 322 321 320 319 318 317 315 312 307 300 292 284 277 271 265 259 254 249 244 240 237 234 232 227 222 219 218 216 216 215 215 216 217 219
322 323 323 324 324 324 324 324 324 324 323 322 322 321 319 318 315 311 304 296 288 280 271 262 255 250 247 241 234 232 229 225 221 218 215 213 212 212 212 212 213 214 216
323 324 325 325 325 326 326 326 326 327 327 326 324 323 322 321 318 313 307 300 292 283 272 260 250 245 241 236 229 224 219 215 213 210 209 207 206 208 209 210 211 212 213
324 326 326 327 327 328 328 328 328 329 329 329 328 327 327 326 324 319 313 307 299 288 273 256 243 236 230 224 220 216 211 208 205 203 203 204 205 206 207 208 209 210 212
325 326 327 328 330 330 330 331 331 332 332 333 332 333 332 331 330 327 322 315 306 291 268 247 232 223 217 213 211 208 205 202 200 199 199 201 203 204 205 206 207 209 211
Height
5639 5641 5643 5645 5646 5648 5649 5651 5652 5654 5656 5657 5658 5659 5660 5662 5663 5664 5665 5666 5667 5668 5670 5671 5673 5674 5675 5676 5677 5679 5680 5681 5682 5684 5684 5685 5685 5687 5687 5688 5688 5689 5689
5639 5640 5641 5642 5643 5644 5645 5646 5647 5648 5649 5650 5651 5651 5651 5651 5652 5653 5653 5654 5655 5655 5657 5658 5659 5660 5661 5662 5663 5665 5666 5667 5668 5670 5671 5671 5672 5673 5674 5675 5675 5676 5676
5638 5638 5639 5639 5640 5640 5641 5641 5641 5641 5641 5641 5641 5641 5641 5641 5641 5641 5641 5642 5642 5642 5643 5644 5645 5645 5646 5647 5649 5650 5651 5652 5653 5655 5656 5657 5659 5660 5661 5661 5662 5663 5663
5636 5636 5635 5635 5635 5635 5635 5634 5634 5634 5633 5633 5632 5631 5630 5630 5629 5629 5628 5628 5628 5629 5629 5629 5630 5630 5631 5632 5633 5634 5635 5636 5637 5639 5641 5642 5644 5645 5646 5648 5648 5649 5651
5633 5632 5631 5630 5629 5628 5627 5626 5625 5625 5624 5623 5621 5620 5619 5617 5616 5615 5615 5614 5614 5614 5613 5613 5613 5614 5614 5615 5616 5617 5618 5620 5621 5622 5624 5626 5628 5630 5632 5633 5634 5635 5637
5628 5627 5626 5624 5622 5621 5619 5617 5616 5614 5613 5611 5609 5608 5606 5604 5602 5601 5600 5599 5598 5597 5597 5596 5595 5596 5596 5597 5598 5599 5600 5602 5604 5605 5607 5609 5612 5614 5615 5617 5619 5621 5624
5623 5621 5619 5617 5615 5612 5610 5608 5605 5603 5600 5598 5595 5593 5591 5588 5586 5584 5582 5580 5579 5578 5577 5577 5577 5576 5576 5577 5578 5579 5581 5582 5584 5587 5589 5591 5594 5596 5598 5601 5603 5606 5609
5616 5613 5610 5607 5605 5602 5599 5596 5593 5590 5586 5583 5579 5576 5573 5570 5567 5564 5561 5559 5558 5557 5556 5556 5556 5556 5555 5556 5557 5558 5560 5562 5564 5566 5569 5572 5575 5577 5581 5584 5587 5590 5593
5607 5604 5600 5597 5593 5589 5586 5582 5578 5573 5569 5565 5561 5557 5553 5549 5545 5542 5539 5537 5536 5535 5533 5533 5533 5533 5533 5533 5534 5536 5538 5541 5542 5545 5548 5551 5555 5558 5562 5565 5569 5573 5577
5598 5594 5589 5585 5580 5575 5570 5565 5560 5555 5549 5544 5540 5534 5530 5525 5521 5517 5514 5513 5512 5511 5510 5509 5508 5508 5508 5507 5508 5511 5514 5517 5519 5522 5526 5530 5534 5538 5542 5547 5552 5556 5560
5588 5583 5577 5572 5566 5560 5554 5547 5540 5535 5528 5522 5517 5511 5506 5500 5496 5492 5488 5485 5485 5484 5483 5482 5481 5480 5480 5481 5482 5484 5488 5491 5494 5499 5504 5508 5514 5519 5524 5528 5534 5539 5544
5577 5571 5565 5558 5551 5544 5536 5529 5521 5513 5506 5499 5493 5488 5481 5475 5471 5466 5463 5459 5457 5456 5456 5455 5454 5452 5453 5454 5455 5458 5461 5464 5469 5475 5481 5487 5493 5499 5504 5510 5515 5521 5527
5565 5558 5551 5543 5535 5526 5518 5509 5501 5492 5483 5476 5470 5464 5459 5452 5446 5441 5437 5434 5430 5429 5428 5427 5426 5426 5426 5428 5430 5432 5436 5440 5445 5451 5458 5466 5472 5478 5484 5491 5497 5504 5511
5552 5545 5537 5528 5519 5509 5499 5489 5480 5471 5462 5454 5447 5441 5436 5429 5423 5417 5412 5409 5405 5402 5401 5401 5400 5400 5401 5403 5405 5408 5412 5417 5423 5429 5436 5444 5451 5458 5465 5473 5481 5488 5495
5539 5531 5522 5512 5502 5491 5481 5469 5460 5450 5440 5433 5426 5419 5413 5408 5401 5394 5389 5386 5382 5379 5377 5377 5377 5377 5378 5380 5383 5387 5391 5396 5402 5409 5416 5424 5432 5440 5448 5456 5465 5472 5480
5525 5516 5506 5495 5485 5474 5463 5453 5441 5430 5421 5412 5404 5398 5392 5386 5380 5374 5368 5364 5360 5357 5356 5356 5356 5356 5358 5360 5364 5368 5372 5378 5384 5390 5398 5406 5414 5423 5432 5440 5449 5457 5466
5510 5500 5490 5479 5467 5456 5445 5435 5426 5416 5403 5393 5385 5378 5372 5366 5360 5354 5349 5344 5341 5338 5337 5337 5338 5339 5340 5343 5346 5350 5356 5361 5367 5374 5382 5390 5399 5407 5416 5425 5434 5443 5451
5495 5484 5474 5462 5451 5439 5428 5417 5407 5399 5390 5380 5369 5360 5354 5348 5342 5336 5331 5327 5325 5322 5320 5320 5322 5323 5325 5328 5332 5336 5341 5346 5352 5359 5367 5375 5384 5393 5402 5412 5421 5430 5439
5480 5470 5458 5447 5435 5424 5413 5402 5392 5382 5373 5364 5355 5346 5338 5331 5325 5319 5315 5312 5310 5308 5307 5306 5308 5310 5312 5316 5319 5324 5328 5334 5340 5347 5354 5363 5371 5380 5390 5400 5409 5418 5427
5466 5454 5443 5432 5421 5410 5399 5388 5378 5369 5359 5350 5341 5333 5325 5318 5312 5306 5302 5299 5297 5296 5295 5295 5296 5298 5301 5305 5308 5313 5318 5323 5329 5336 5343 5351 5360 5369 5378 5388 5398 5407 5416
5452 5441 5429 5418 5407 5397 5386 5376 5366 5357 5347 5338 5329 5320 5312 5306 5300 5295 5290 5288 5286 5286 5286 5286 5287 5289 5292 5295 5299 5303 5308 5314 5320 5326 5334 5342 5350 5359 5369 5378 5388 5397 5406
5439 5428 5417 5406 5395 5385 5374 5365 5355 5346 5336 5328 5319 5310 5302 5296 5290 5285 5281 5278 5277 5276 5277 5278 5279 5281 5284 5287 5291 5295 5300 5306 5312 5319 5326 5334 5342 5351 5360 5369 5379 5388 5396
5427 5416 5406 5395 5384 5374 5364 5354 5345 5336 5327 5318 5310 5302 5295 5288 5282 5278 5274 5271 5270 5269 5269 5270 5272 5274 5277 5280 5284 5288 5293 5299 5305 5312 5319 5327 5335 5344 5353 5362 5370 5379 5388
5415 5405 5395 5385 5374 5365 5355 5345 5336 5327 5318 5310 5302 5295 5288 5281 5276 5272 5268 5266 5264 5263 5263 5264 5266 5268 5271 5274 5278 5283 5288 5293 5299 5306 5313 5321 5329 5338 5346 5355 5363 5372 5380
5405 5395 5385 5375 5366 5356 5346 5337 5328 5320 5311 5303 5296 5289 5282 5276 5271 5267 5264 5262 5260 5259 5259 5260 5262 5264 5267 5271 5275 5279 5284 5289 5295 5302 5309 5317 5324 5332 5340 5349 5357 5365 5373
5395 5386 5376 5367 5357 5348 5339 5331 5322 5314 5306 5298 5291 5284 5278 5273 5268 5264 5261 5259 5258 5257 5257 5258 5260 5262 5265 5269 5273 5277 5282 5287 5293 5299 5306 5313 5321 5328 5336 5343 5351 5359 5367